COSMOS 2251 DEB, 33818

Orbit data source: Space-Track

COSMOS 2251 DEB, 33818 is space debris in LEO originally from a launch on Wed, 16 Jun 1993 UTC launched from the Plesetsk Missile And Space Complex (PKMTR). The debris from Iridium 33, an American commercial communications satellite, has been tracked extensively since its accidental collision with the defunct Russian satellite Cosmos 2251 in 2009. This event, occurring at high speed in low Earth orbit (LEO), generated thousands of pieces of space debris, significantly increasing the risk of further collisions. The Iridium 33 debris cloud has impacted space traffic management and orbital debris mitigation strategies, making it a subject of ongoing study in space situational awareness.

Loading next visibility...
Identifier
33818, 1993-036BK
Orbit
LEO
Country
Flag of CISCIS
Related business
Manufacturer
Unknown
Mission
Spacecraft
Bus & Motor
Unknown
Mass
Unknown
Launch date (UTC)
1993-06-16 (33 years ago)
Launch vehicle
Unknown
Launch site
Plesetsk Missile And Space Complex (PKMTR)
Object type
Payload
Rocket body
Debris
Shape & HBR
Unknown shape, 0.1 m
Radar Cross Section
Small (<0.1 m²)

Expand to show TLE details & history
Last TLE update: 13 hours ago

TLE from 13 hours ago
0 COSMOS 2251 DEB
1 33818U 93036BK  26033.51466926  .00046396  00000-0  22663-2 0  9996
2 33818  74.0792  58.8249 0021915  17.7599 132.9092 15.17820414906460
Epoch: 2026-02-02T12:21Z
TLE epoch observation values (Epoch: 2026-02-02T12:21:07.424Z)
Latitude
27.97986°
Longitude
-87.83291°
Altitude
525.932 km
Speed
7.597 km/s
True Right ascension
15h 20m 37s
True Declination
27° 49' 58"
Sunlit
Object was in daylight at epoch
Visualization orbit readout
Latitude
Unknown
Longitude
Unknown
Altitude
Unknown
Speed
Unknown
Apparent Right ascension
Unknown
Apparent Declination
Unknown
Sunlit
N/A
Visualization observer readout
Local Sidereal Time
02:46:07
Azimuth
Unknown
Elevation
Unknown
Doppler factor
Unknown
Orbital elements
Apogee altitude
525.055 km
Perigee altitude
494.865 km
Semi-major axis
6,888.097 km
Eccentricity
0.00219
Inclination
74.0792°
RAAN
58.8249°
Arg. of periapsis
17.7599°
True anomaly
133.09279°
Mean anomaly
132.9092°
Eccentric anomaly
133.00103°
Mean motion
3.7966 °/min
Orbital period
94.82 mins
BSTAR
0.0022663
Loading maneuver chart data...
Computing Atmospheric mass density...
Loading historical data...
Loading historical data...
Loading historical data...
Loading historical data...
Loading historical data...
Loading historical data...
Loading historical data...

Documentation

Showing up to 5 results
|